Location: Shenandoah County Park
(38.9356°N, 78.4524°W)
Time: 09:37:43
(UTC-05:00)

Vanguard 2 - All Passes

Search period start: 02 December 2023 00:00
Search period end: 12 December 2023 00:00
Orbit: 553 x 2922 km, 32.9° (Epoch: 01 December)

Date Brightness Start Highest point End Pass type
(mag) Time Alt. Az. Time Alt. Az. Time Alt. Az.
02 Dec - 00:14:13 10° WSW 00:28:17 64° S 00:36:46 10° E night (unlit)
02 Dec - 02:27:12 10° W 02:37:26 47° SSW 02:43:42 10° SE night (unlit)
02 Dec - 04:40:57 10° WSW 04:44:37 14° SW 04:47:38 10° S visible
02 Dec - 18:05:31 10° SSE 18:12:00 13° SE 18:18:17 10° ESE visible
02 Dec - 20:07:29 10° SSW 20:22:27 35° SSE 20:34:34 10° E visible
02 Dec - 22:17:17 10° WSW 22:33:26 58° SSE 22:44:17 10° E visible
03 Dec - 00:29:57 10° W 00:43:55 64° S 00:52:17 10° ESE night (unlit)
03 Dec - 02:43:05 10° W 02:52:48 40° SSW 02:58:53 10° SE visible
03 Dec - 18:16:55 10° S 18:27:19 19° SE 18:37:09 10° ESE visible
03 Dec - 20:22:02 10° SW 20:37:57 42° SSE 20:50:36 10° E visible
03 Dec - 22:32:45 10° WSW 22:49:06 63° S 22:59:56 10° E visible
04 Dec - 00:45:45 10° W 00:59:30 62° S 01:07:45 10° ESE night (unlit)
04 Dec - 02:59:05 10° W 03:08:02 33° SSW 03:13:54 10° SSE visible
04 Dec - 18:29:57 10° S 18:42:36 25° SE 18:54:28 10° E visible
04 Dec - 20:36:54 10° SW 20:53:29 49° SSE 21:06:27 10° E visible
04 Dec - 22:48:19 10° WSW 23:04:46 66° S 23:15:31 10° E visible
05 Dec - 01:01:34 10° W 01:15:02 58° SSW 01:23:11 10° ESE night (unlit)
05 Dec - 03:15:14 10° W 03:23:11 26° SW 03:28:39 10° SSE visible
05 Dec - 18:43:45 10° SSW 18:57:55 31° SE 19:11:05 10° E visible
05 Dec - 20:52:00 10° SW 21:09:03 56° SSE 21:22:12 10° E visible
05 Dec - 23:04:00 10° WSW 23:20:26 68° S 23:31:05 10° E visible
06 Dec - 01:17:24 10° W 01:30:29 52° SSW 01:38:30 10° SE night (unlit)
06 Dec - 03:31:42 10° W 03:38:12 19° SW 03:43:01 10° S visible
06 Dec - 16:56:05 10° SSE 17:03:11 14° SE 17:10:27 10° ESE daylight
06 Dec - 18:58:01 10° SSW 19:13:15 38° SSE 19:27:19 10° E visible
06 Dec - 21:07:18 10° WSW 21:24:40 61° SSE 21:37:53 10° E visible
06 Dec - 23:19:45 10° W 23:36:04 67° S 23:46:37 10° ESE visible
07 Dec - 01:33:17 10° W 01:45:50 45° SSW 01:53:41 10° SE night (unlit)
07 Dec - 03:48:55 10° WSW 03:53:07 14° SW 03:56:35 10° SSW night (unlit)
07 Dec - 17:07:57 10° S 17:18:17 20° SE 17:29:01 10° E visible
07 Dec - 19:12:39 10° SW 19:28:38 45° SSE 19:43:19 10° E visible
07 Dec - 21:22:45 10° WSW 21:40:19 66° S 21:53:32 10° E visible
07 Dec - 23:35:32 10° W 23:51:41 65° S 00:02:06 10° ESE visible
08 Dec - 01:49:15 10° W 02:01:04 38° SSW 02:08:40 10° SSE night (unlit)
08 Dec - 17:21:12 10° S 17:33:23 26° SE 17:46:13 10° E visible
08 Dec - 19:27:33 10° SW 19:44:05 52° SSE 19:59:10 10° E visible
08 Dec - 21:38:20 10° WSW 21:55:59 69° S 22:09:09 10° E visible
08 Dec - 23:51:20 10° W 00:07:14 61° SSW 00:17:30 10° ESE visible
09 Dec - 02:05:22 10° W 02:16:10 31° SW 02:23:27 10° SSE night (unlit)
09 Dec - 17:35:07 10° SSW 17:48:32 32° SE 18:02:48 10° E visible
09 Dec - 19:42:40 10° SW 19:59:36 58° SSE 20:14:56 10° E visible
09 Dec - 21:53:59 10° WSW 22:11:40 70° S 22:24:44 10° E visible
10 Dec - 00:07:10 10° W 00:22:41 56° SSW 00:32:48 10° SE visible
10 Dec - 02:21:45 10° W 02:31:10 24° SW 02:37:53 10° S night (unlit)
10 Dec - 15:48:12 10° SSE 15:54:21 13° SE 16:01:00 10° ESE daylight
10 Dec - 17:49:28 10° SSW 18:03:44 39° SE 18:19:02 10° E visible
10 Dec - 19:57:58 10° WSW 20:15:10 63° SSE 20:30:39 10° E visible
10 Dec - 22:09:42 10° W 22:27:20 70° S 22:40:17 10° ESE visible
11 Dec - 00:23:02 10° W 00:38:03 49° SSW 00:47:58 10° SE visible
11 Dec - 02:38:37 10° W 02:46:02 18° SW 02:51:48 10° S night (unlit)
11 Dec - 16:00:07 10° S 16:09:17 19° SE 16:19:39 10° E daylight
11 Dec - 18:04:09 10° SW 18:19:00 46° SSE 18:35:02 10° E visible
11 Dec - 20:13:25 10° WSW 20:30:49 68° S 20:46:18 10° E visible
11 Dec - 22:25:26 10° W 22:42:58 67° S 22:55:46 10° ESE visible
